Mattaponi, VA

4:12 AM EST on February 26, 2017 (GMT -0500)
West Point

Weather History for KFYJ - March, 2013

Change the Weather History Date:

Friday, March 22, 2013

  Actual Average (KJGG) Record (KJGG)
Temperature  
Mean Temperature 38 °F -  
Max Temperature 49 °F 61 °F 85 °F (1968)
Min Temperature 27 °F 37 °F 16 °F (1988)
Degree Days  
Heating Degree Days 27    
Moisture  
Dew Point 19 °F    
Average Humidity 50    
Maximum Humidity 81    
Minimum Humidity 31    
Precipitation  
Precipitation 0.00 in - - ()
Sea Level Pressure  
Sea Level Pressure 29.98 in    
Wind  
Wind Speed 6 mph (West)    
Max Wind Speed 14 mph    
Max Gust Speed 22 mph    
Visibility 10 miles    
Events      
Averages and records for this station are not official NWS values.
T = Trace of Precipitation, MM = Missing Value Source: NWS Daily Summary

Daily Weather History Graph

Daily Weather History Graph

Search for Another Location

Airport or City:

Trip Planner

Search our weather history database for the weather conditions in past years. The results will help you decide how hot, cold, wet, or windy it might be!

Date:

Astronomy

Mar. 22, 2013 Rise Set
Actual Time 7:07 AM EDT 7:20 PM EDT
Civil Twilight 6:41 AM EDT 7:47 PM EDT
Nautical Twilight 6:10 AM EDT 8:17 PM EDT
Astronomical Twilight 5:39 AM EDT 8:48 PM EDT
Moon 2:50 PM EDT (3/22) 4:01 AM EDT (3/22)
Length of Visible Light 13h 05m
Length of Day
12h 13m
Waxing Gibbous, 77% of the Moon is Illuminated
Mar 22
Waxing Gibbous
Mar 27
Full
Apr 3
Last Quarter
Apr 10
New
Apr 18
First Quarter

Hourly Weather History & Observations

Time (EDT) Temp. Windchill Dew Point Humidity Pressure Visibility Wind Dir Wind Speed Gust Speed Precip Events Conditions
12:15 AM 30.4 °F 25.6 °F 13.8 °F 50% 29.96 in 10.0 mi NW 4.6 mph - N/A   Clear
12:35 AM 30.7 °F 27.3 °F 12.9 °F 48% 29.96 in 10.0 mi NW 3.5 mph - N/A   Clear
12:55 AM 30.6 °F 24.7 °F 12.7 °F 48% 29.96 in 10.0 mi NW 5.8 mph - N/A   Clear
1:15 AM 30.2 °F 26.7 °F 12.7 °F 48% 29.96 in 10.0 mi NW 3.5 mph - N/A   Clear
1:35 AM 30.2 °F 23.4 °F 12.6 °F 48% 29.96 in 10.0 mi WNW 6.9 mph - N/A   Clear
1:55 AM 30.0 °F 23.2 °F 15.4 °F 55% 29.97 in 10.0 mi West 6.9 mph - N/A   Clear
2:15 AM 29.8 °F 23.9 °F 16.3 °F 57% 29.97 in 10.0 mi West 5.8 mph - N/A   Clear
2:35 AM 30.0 °F 25.2 °F 16.5 °F 57% 29.96 in 10.0 mi West 4.6 mph - N/A   Clear
2:55 AM 28.8 °F 22.6 °F 16.7 °F 61% 29.97 in 10.0 mi WSW 5.8 mph - N/A   Clear
3:15 AM 28.2 °F 21.0 °F 15.8 °F 60% 29.97 in 10.0 mi WSW 6.9 mph - N/A   Clear
3:35 AM 28.9 °F 21.1 °F 15.3 °F 57% 29.98 in 10.0 mi West 8.1 mph - N/A   Clear
3:55 AM 28.9 °F 22.8 °F 15.1 °F 56% 29.97 in 10.0 mi West 5.8 mph - N/A   Clear
4:15 AM 28.8 °F 20.9 °F 15.8 °F 58% 29.97 in 10.0 mi West 8.1 mph - N/A   Clear
4:35 AM 28.6 °F 20.7 °F 15.8 °F 59% 29.97 in 10.0 mi West 8.1 mph - N/A   Clear
4:55 AM 28.2 °F 19.5 °F 15.4 °F 59% 29.97 in 10.0 mi WSW 9.2 mph - N/A   Clear
5:15 AM 28.6 °F 20.7 °F 15.4 °F 58% 29.98 in 10.0 mi West 8.1 mph - N/A   Clear
5:35 AM 28.6 °F 20.7 °F 15.4 °F 58% 29.98 in 10.0 mi WSW 8.1 mph - N/A   Clear
5:55 AM 27.5 °F 20.2 °F 15.8 °F 61% 29.97 in 10.0 mi WSW 6.9 mph - N/A   Clear
6:15 AM 27.3 °F 19.9 °F 15.8 °F 62% 29.98 in 10.0 mi WSW 6.9 mph - N/A   Clear
6:35 AM 27.5 °F 20.2 °F 15.8 °F 61% 29.99 in 10.0 mi West 6.9 mph - N/A   Clear
6:55 AM 27.3 °F 19.1 °F 16.2 °F 63% 30.00 in 10.0 mi West 8.1 mph - N/A   Clear
7:15 AM 27.1 °F 20.7 °F 15.8 °F 62% 30.01 in 10.0 mi West 5.8 mph - N/A   Clear
7:35 AM 28.2 °F 21.0 °F 15.8 °F 60% 30.01 in 10.0 mi West 6.9 mph - N/A   Clear
7:55 AM 29.3 °F 21.5 °F 16.5 °F 59% 30.02 in 10.0 mi West 8.1 mph - N/A   Clear
8:15 AM 30.2 °F 23.4 °F 16.0 °F 56% 30.03 in 10.0 mi WSW 6.9 mph - N/A   Clear
8:35 AM 32.0 °F 23.6 °F 15.6 °F 51% 30.03 in 10.0 mi West 10.4 mph - N/A   Clear
8:55 AM 32.2 °F 25.8 °F 16.3 °F 52% 30.03 in 10.0 mi West 6.9 mph - N/A   Clear
9:15 AM 34.0 °F 27.2 °F 17.1 °F 50% 30.03 in 10.0 mi West 8.1 mph - N/A   Clear
9:35 AM 35.4 °F 27.3 °F 17.1 °F 47% 30.03 in 10.0 mi West 11.5 mph - N/A   Clear
9:55 AM 36.0 °F 28.0 °F 16.9 °F 46% 30.03 in 10.0 mi West 11.5 mph - N/A   Clear
10:15 AM 37.6 °F 30.5 °F 17.6 °F 44% 30.03 in 10.0 mi West 10.4 mph - N/A   Clear
10:35 AM 38.7 °F 33.6 °F 17.2 °F 42% 30.03 in 10.0 mi West 6.9 mph - N/A   Clear
10:55 AM 39.2 °F 33.6 °F 16.5 °F 40% 30.02 in 10.0 mi WNW 8.1 mph - N/A   Clear
11:15 AM 40.8 °F 37.8 °F 17.4 °F 39% 30.02 in 10.0 mi West 4.6 mph - N/A   Clear
11:35 AM 42.1 °F 37.7 °F 18.0 °F 38% 30.01 in 10.0 mi West 6.9 mph - N/A   Clear
11:55 AM 42.6 °F 36.8 °F 18.1 °F 37% 30.00 in 10.0 mi WNW 10.4 mph - N/A   Clear
12:15 PM 43.2 °F 37.0 °F 17.6 °F 36% 29.99 in 10.0 mi WSW 11.5 mph 16.1 mph N/A   Clear
12:35 PM 43.5 °F 38.9 °F 17.4 °F 35% 29.99 in 10.0 mi WSW 8.1 mph - N/A   Clear
12:55 PM 43.9 °F 38.3 °F 17.4 °F 35% 29.98 in 7.0 mi West 10.4 mph 17.3 mph N/A   Clear
1:15 PM 45.0 °F 40.6 °F 18.9 °F 35% 29.98 in 10.0 mi West 8.1 mph - N/A   Clear
1:35 PM 45.5 °F 39.9 °F 18.1 °F 34% 29.97 in 10.0 mi NW 11.5 mph 18.4 mph N/A   Clear
1:55 PM 46.2 °F 42.2 °F 19.0 °F 34% 29.96 in 10.0 mi NW 8.1 mph 18.4 mph N/A   Clear
2:15 PM 46.4 °F 40.7 °F 19.0 °F 34% 29.96 in 10.0 mi West 12.7 mph 21.9 mph N/A   Clear
2:35 PM 47.3 °F - 19.2 °F 33% 29.95 in 10.0 mi WSW 9.2 mph 18.4 mph N/A   Clear
2:55 PM 47.5 °F - 19.6 °F 33% 29.94 in 7.0 mi West 13.8 mph 18.4 mph N/A   Clear
3:15 PM 47.8 °F - 18.9 °F 32% 29.93 in 10.0 mi West 8.1 mph - N/A   Clear
3:35 PM 48.6 °F - 19.9 °F 32% 29.93 in 10.0 mi WSW 9.2 mph - N/A   Clear
3:55 PM 49.1 °F - 21.0 °F 33% 29.93 in 10.0 mi SW 12.7 mph 19.6 mph N/A   Clear
4:15 PM 49.3 °F - 20.3 °F 32% 29.93 in 10.0 mi West 9.2 mph 19.6 mph N/A   Clear
4:35 PM 49.6 °F - 20.7 °F 32% 29.93 in 10.0 mi West 12.7 mph 16.1 mph N/A   Clear
4:55 PM 49.1 °F - 19.8 °F 31% 29.93 in 10.0 mi West 6.9 mph - N/A   Clear
5:15 PM 49.6 °F - 21.0 °F 32% 29.93 in 10.0 mi West 9.2 mph - N/A   Clear
5:35 PM 49.5 °F - 19.8 °F 31% 29.93 in 10.0 mi WNW 6.9 mph - N/A   Clear
5:55 PM 49.3 °F - 20.7 °F 32% 29.93 in 10.0 mi West 11.5 mph 16.1 mph N/A   Clear
6:15 PM 48.7 °F - 20.7 °F 33% 29.94 in 10.0 mi West 9.2 mph - N/A   Clear
6:35 PM 48.2 °F - 21.2 °F 34% 29.94 in 10.0 mi West 6.9 mph 16.1 mph N/A   Clear
6:55 PM 46.4 °F 42.4 °F 21.9 °F 38% 29.95 in 10.0 mi WSW 8.1 mph - N/A   Clear
7:15 PM 44.6 °F 41.4 °F 22.5 °F 42% 29.96 in 10.0 mi WSW 5.8 mph - N/A   Clear
7:35 PM 44.1 °F 41.5 °F 23.2 °F 44% 29.96 in 10.0 mi WSW 4.6 mph - N/A   Clear
7:55 PM 43.7 °F - 25.0 °F 48% 29.97 in 10.0 mi Calm Calm - N/A   Clear
8:15 PM 38.8 °F - 26.1 °F 60% 29.97 in 10.0 mi Calm Calm - N/A   Clear
8:35 PM 35.4 °F - 25.5 °F 67% 29.97 in 10.0 mi Calm Calm - N/A   Clear
8:55 PM 35.6 °F - 25.2 °F 66% 29.98 in 10.0 mi Calm Calm - N/A   Clear
9:15 PM 35.6 °F - 25.0 °F 65% 29.98 in 10.0 mi Calm Calm - N/A   Clear
9:35 PM 33.6 °F - 25.9 °F 73% 29.99 in 10.0 mi Calm Calm - N/A   Clear
9:55 PM 32.2 °F - 25.5 °F 76% 29.99 in 10.0 mi Calm Calm - N/A   Clear
10:15 PM 32.2 °F - 25.5 °F 76% 30.00 in 10.0 mi Calm Calm - N/A   Clear
10:35 PM 32.2 °F - 25.2 °F 75% 30.00 in 10.0 mi Calm Calm - N/A   Clear
10:55 PM 32.0 °F 28.7 °F 25.2 °F 76% 30.00 in 10.0 mi ENE 3.5 mph - N/A   Clear
11:15 PM 30.9 °F - 25.5 °F 80% 30.00 in 10.0 mi Calm Calm - N/A   Clear
11:35 PM 31.1 °F - 25.3 °F 79% 30.00 in 10.0 mi Calm Calm - N/A   Clear
11:55 PM 30.4 °F - 25.2 °F 81% 30.00 in 10.0 mi Calm Calm - N/A   Clear